Probability
0 0 0 0 0 0 0 0 0 0 0 0 0 0 0 0 0 0 0 0 0 0 0 0 0 0 0 0 0 0 0 0 0 0 0 0 0 0 0 0 0 0 0 0
0 0 0 0 0 0 0 0 0 0 0 0 0 0 0 0 0 0 0 0 0 0 0 0 0 0 0 0 0 0 0 0 0 0 0 0 0 0 0 0 0 0 0 0
0 0 0 0 0 0 0 0 0 0 0 0 0 0 0 0 0 0 0 0 0 0 0 0 0 0 0 0 0 0 0 0 0 0 0 0 0 0 0 0 0 0 0 0
0 0 0 0 0 0 0 0 0 0 0 0 0 0 0 0 0 0 0 0 0 0 0 0 0 0 0 0 0 0 0 0 0 0 0 0 0 0 0 0 0 0 0 0
0 0 0 0 0 0 0 0 0 0 0 0 0 0 0 0 0 0 0 0 0 0 0 0 0 0 0 0 0 0 0 0 0 0 0 0 0 0 0 0 0 0 0 0
0 0 0 0 0 0 0 0 0 0 0 0 0 0 0 0 0 0 0 0 0 0 0 0 0 0 0 0 0 0 0 0 0 0 0 0 0 0 0 0 0 0 0 0
0 0 0 0 0 0 0 0 0 0 0 0 0 0 0 0 0 0 0 0 0 0 0 0 0 0 0 0 0 0 0 0 0 0 0 0 0 0 0 0 0 0 0 0
0 0 0 0 0 0 0 0 0 0 0 0 0 0 0 0 0 0 0 0 0 0 0 0 0 0 0 0 0 0 0 0 0 0 0 0 0 0 0 0 0 0 0 0
0 0 0 0 0 0 0 0 0 0 0 0 0 0 0 0 0 0 0 0 0 0 0 0 0 0 0 0 0 0 0 0 0 0 0 0 0 0 0 0 0 0 0 0
0 0 0 0 0 0 0 0 0 0 0 0 0 0 0 0 0 0 0 0 0 0 0 0 0 0 0 0 0 0 0 0 0 0 0 0 0 0 0 0 0 0 0 0
0 0 0 0 0 0 0 0 0 0 0 0 0 0 0 0 0 0 0 0 0 0 0 0 0 0 0 0 0 0 0 0 0 0 0 0 0 0 0 0 0 0 0 0
0 0 0 0 0 0 0 0 0 0 0 0 0 0 0 0 0 0 0 0 0 0 0 0 0 0 0 0 0 0 0 0 0 0 0 0 0 0 0 0 0 0 0 0
0 0 0 0 0 0 0 0 0 0 0 0 0 0 0 0 0 0 0 0 0 0 0 0 0 0 0 0 0 0 0 0 0 0 0 0 0 0 0 0 0 0 0 0
0 0 0 0 0 0 0 0 0 0 0 0 0 0 0 0 0 0 0 0 0 0 0 0 0 0 0 0 0 0 0 0 0 0 0 0 0 0 0 0 0 0 0 0
0 0 0 0 0 0 0 0 0 0 0 0 0 0 0 0 0 0 0 0 0 0 0 0 0 0 0 0 0 0 0 0 0 0 0 0 0 0 0 0 0 0 0 0
0 0 0 0 0 0 0 0 0 0 0 0 0 0 0 0 0 0 0 0 0 0 0 0 0 0 0 0 0 0 0 0 0 0 0 0 0 0 0 0 0 0 0 0
0 0 0 0 0 0 0 0 0 0 0 0 0 0 0 0 0 0 0 0 0 0 0 0 0 0 0 0 0 0 0 0 0 0 0 0 0 0 0 0 0 0 0 0
0 0 0 0 0 0 0 0 0 0 0 0 0 0 0 0 0 0 0 0 0 0 0 0 0 0 0 0 0 0 0 0 0 0 0 0 0 0 0 0 0 0 0 0
0 0 0 0 0 0 0 0 0 0 0 0 0 0 0 0 0 0 0 0 0 0 0 0 0 0 0 0 0 0 0 0 0 0 0 0 0 0 0 0 0 0 0 0
0 0 0 0 0 0 0 0 0 0 0 0 0 0 0 0 0 0 0 0 0 0 0 0 0 0 0 0 0 0 0 0 0 0 0 0 0 0 0 0 0 0 0 0
0 0 0 0 0 0 0 0 0 0 0 0 0 0 0 0 0 0 0 0 0 0 0 0 0 0 0 0 0 0 0 0 0 0 0 0 0 0 0 0 0 0 0 0
0 0 0 0 0 0 0 0 0 0 0 0 0 0 0 0 0 0 0 0 0 0 0 0 0 0 0 0 0 0 0 0 0 0 0 0 0 0 0 0 0 0 0 0
0 0 0 0 0 0 0 0 0 0 0 0 0 0 0 0 0 0 0 0 0 0 0 0 0 0 0 0 0 0 0 0 0 0 0 0 0 0 0 0 0 0 0 0
0 0 0 0 0 0 0 0 0 0 0 0 0 0 0 0 0 0 0 0 0 0 0 0 0 0 0 0 0 0 0 0 0 0 0 0 0 0 0 0 0 0 0 0
0 0 0 0 0 0 0 0 0 0 0 0 0 0 0 0 0 0 0 0 0 0 0 0 0 0 0 0 0 0 0 0 0 0 0 0 0 0 0 0 0 0 0 0
0 0 0 0 0 0 0 0 0 0 0 0 0 0 0 0 0 0 0 0 0 0 0 0 0 0 0 0 0 0 0 0 0 0 0 0 0 0 0 0 0 0 0 0
Wind_Speed
3 4 8 14 14 8 7 6 7 7 4 6 11 15 14 8 8 10 11 12 15 16 9 9 9 8 7 7 8 9 10 10 9 8 7 7 6 6 6 6 8 9 9 9
3 8 14 8 6 5 5 6 8 8 4 6 9 15 12 9 10 12 15 17 18 12 9 12 11 10 9 9 10 10 11 10 9 6 6 5 7 6 6 6 8 8 9 9
13 9 7 7 6 7 9 10 10 8 6 4 6 11 9 11 10 11 13 15 15 18 19 17 15 13 11 11 12 11 11 10 9 10 10 10 8 7 6 7 7 7 8 9
10 6 6 7 9 11 9 9 9 7 5 6 3 12 8 11 12 14 18 17 17 16 16 16 16 15 14 12 10 11 11 11 12 12 13 15 12 10 7 7 7 8 8 9
11 8 9 10 10 13 8 5 6 5 5 6 3 10 12 8 10 14 19 20 17 15 17 18 17 16 12 11 11 10 11 12 13 11 12 13 12 10 10 9 11 9 7 8
6 5 8 9 6 9 6 6 5 5 2 9 8 10 18 9 12 11 16 16 13 13 13 13 11 11 10 10 10 11 12 12 12 12 11 13 18 17 16 13 12 9 6 6
5 6 5 4 6 4 6 7 1 3 3 11 6 10 15 7 9 12 13 11 9 10 13 15 16 15 14 14 13 12 14 13 13 12 12 13 16 19 20 17 14 12 8 6
7 9 12 10 11 11 10 13 11 9 8 7 4 14 12 7 7 7 7 6 6 10 12 15 16 16 15 15 14 14 15 14 14 14 12 12 13 11 11 12 12 11 9 8
11 9 4 8 6 14 8 8 8 5 2 6 10 11 11 5 8 9 7 4 8 10 12 13 13 13 14 14 14 15 15 14 15 14 14 14 12 11 12 11 10 9 9 9
8 6 2 2 4 3 8 9 6 7 7 8 10 9 9 7 13 11 8 9 9 8 9 11 12 12 12 11 10 12 14 15 14 15 14 13 12 12 13 13 12 11 10 10
7 7 2 3 10 13 9 7 7 7 6 7 8 13 9 11 10 10 11 10 11 12 12 12 11 10 10 10 10 11 12 13 14 14 14 14 13 12 12 12 12 12 10 11
9 5 6 8 5 5 8 11 12 10 8 7 8 15 4 6 6 7 8 7 9 10 10 10 10 11 11 12 12 12 13 13 14 14 14 15 14 13 13 12 12 11 11 10
10 8 5 3 3 4 7 8 10 7 7 8 10 14 2 1 4 4 4 5 8 9 10 10 11 13 13 13 13 13 13 13 13 14 15 15 15 15 14 14 13 12 12 11
9 9 11 13 8 10 10 11 14 11 10 12 19 19 8 5 5 5 4 5 8 10 12 13 13 14 14 14 14 14 14 14 14 15 16 16 16 16 15 14 13 12 12 12
9 11 12 12 5 6 8 13 18 23 22 17 18 21 23 10 10 8 6 6 8 11 13 16 17 15 15 15 15 15 15 15 16 16 16 16 14 13 13 13 12 11 11 11
10 9 10 14 15 11 10 14 18 23 21 25 22 30 17 9 8 8 8 10 12 14 17 18 17 17 18 19 18 17 17 16 16 16 16 14 14 14 14 13 13 12 11 10
8 9 9 14 12 10 22 26 21 16 15 15 26 36 14 9 12 14 14 13 15 17 18 19 20 21 20 20 20 20 17 15 15 15 14 14 15 14 14 13 13 13 12 11
9 10 8 8 11 22 17 10 19 24 23 21 19 19 14 16 15 13 12 13 15 16 17 18 18 19 17 16 15 13 13 15 16 15 14 15 15 14 14 14 13 12 10 11
14 12 9 8 14 12 9 6 11 17 22 23 26 26 21 12 7 11 9 11 14 14 14 15 16 16 14 15 16 15 15 16 16 17 17 17 16 16 15 15 14 11 10 9
13 12 12 11 10 11 10 5 6 8 13 12 16 22 21 10 10 15 5 6 8 7 7 8 8 9 12 14 16 17 17 18 20 19 18 16 16 17 17 16 12 9 9 9
11 13 18 18 13 8 7 4 8 10 11 4 7 11 10 10 11 4 1 0 1 2 2 4 7 9 12 14 17 18 17 20 18 15 14 15 16 16 15 13 10 9 9 8
10 9 10 10 12 11 7 9 11 8 2 2 2 2 4 4 1 1 1 1 2 2 2 3 5 6 7 13 16 17 18 15 12 13 14 15 15 13 11 13 11 10 10 10
10 10 7 8 7 2 5 6 3 3 4 3 3 2 3 3 2 1 1 2 2 3 2 2 4 5 5 8 12 14 11 11 13 14 14 13 13 12 12 13 13 11 10 9
5 2 4 5 6 3 3 1 1 1 2 2 2 2 3 3 3 2 2 1 2 2 2 2 4 5 4 5 6 7 9 11 13 14 13 12 13 12 10 10 10 11 11 10
6 6 5 6 3 2 4 6 5 3 3 3 2 2 3 4 3 3 2 2 2 2 1 2 3 4 4 4 5 6 9 11 11 11 10 10 10 11 10 10 10 12 11 13
6 8 8 7 7 6 5 5 7 7 6 6 5 3 2 3 4 4 3 2 2 2 2 2 3 3 3 4 4 5 7 10 11 10 9 8 8 8 8 8 6 14 12 16
Wind_Direction
133 122 195 204 200 195 180 195 228 245 234 193 228 245 252 226 221 233 227 219 219 220 200 178 178 170 161 160 158 155 148 146 141 134 128 118 107 101 92 88 95 101 104 103
97 231 223 207 202 216 217 237 257 279 258 215 247 254 252 232 218 223 224 224 222 211 186 186 182 177 173 169 169 165 161 160 156 141 129 119 120 105 99 98 90 93 99 101
190 219 199 175 187 200 225 223 236 250 311 292 283 277 236 240 226 231 231 229 221 207 197 188 184 184 177 176 175 172 168 163 151 138 127 120 111 112 108 104 94 85 92 95
227 224 153 174 197 188 234 217 217 233 255 272 237 281 234 226 234 235 238 234 226 211 196 186 184 184 183 179 171 169 166 161 154 151 149 147 146 141 135 128 114 100 94 98
226 192 182 196 198 181 214 193 191 210 228 271 211 270 271 191 231 241 240 238 228 207 192 187 185 182 176 169 168 166 162 161 159 160 159 147 136 129 129 124 116 109 99 96
235 204 200 208 185 170 133 82 62 46 62 267 198 225 271 181 210 230 239 239 222 198 185 177 167 162 164 164 164 164 163 162 162 161 160 150 144 142 140 137 130 123 115 105
253 232 215 153 123 127 136 119 67 304 261 251 192 226 258 218 219 224 241 244 215 183 170 167 167 170 170 169 168 166 165 164 163 160 158 156 153 150 149 146 143 139 135 131
203 243 202 188 170 170 185 168 176 203 230 266 242 240 256 249 258 264 269 255 184 174 173 175 175 173 172 171 170 168 168 166 164 161 158 156 154 151 148 147 146 144 142 138
197 236 223 201 179 155 170 206 177 163 239 275 255 266 291 264 266 256 253 221 193 184 178 175 173 173 172 173 173 171 168 165 165 161 157 157 157 153 148 143 138 137 138 138
180 224 230 164 107 166 156 154 134 172 206 246 265 252 247 229 239 242 234 220 205 184 177 175 175 174 173 172 168 167 168 166 164 161 161 160 159 154 150 147 146 145 143 140
192 206 208 166 185 178 155 170 173 169 181 193 265 262 216 218 233 237 234 217 196 187 184 180 177 173 168 165 167 167 168 164 164 164 161 158 157 154 152 150 151 149 145 147
189 185 222 222 228 202 189 181 167 178 207 206 240 264 219 218 256 251 244 213 191 186 180 175 171 170 172 174 174 173 172 170 169 164 160 160 157 156 155 155 154 151 149 150
160 174 206 246 235 203 211 206 195 180 171 200 224 260 273 253 280 264 236 200 181 174 172 172 176 181 183 182 180 179 177 174 168 164 162 161 163 163 161 160 157 155 153 151
165 184 206 214 201 178 195 204 199 186 209 225 231 248 249 251 264 263 233 197 182 180 181 184 189 190 188 186 184 182 180 175 170 168 168 169 170 168 164 161 159 159 157 156
174 205 219 238 224 177 198 204 205 210 217 225 240 246 246 228 240 246 226 197 187 191 194 196 197 193 190 188 188 185 182 178 175 174 175 174 168 163 160 160 160 159 160 159
188 211 210 235 231 222 228 225 217 221 226 234 249 257 249 223 225 234 222 205 204 205 206 205 201 196 195 193 191 187 186 181 177 178 177 169 166 165 165 164 162 161 161 158
196 199 213 240 227 224 237 230 219 218 219 220 238 251 252 232 228 230 228 216 213 212 210 207 204 201 199 196 190 189 184 175 177 178 174 171 169 169 168 166 166 168 166 162
201 206 220 235 215 233 240 218 210 221 229 222 234 251 245 233 236 237 227 219 222 219 214 211 207 205 200 191 185 178 171 174 178 178 176 174 172 171 168 170 173 171 168 170
209 210 223 228 238 248 265 223 189 206 235 228 231 245 252 251 273 267 238 221 227 223 216 212 206 201 188 182 176 169 173 176 180 183 182 178 175 173 173 177 177 172 170 174
207 206 223 230 232 225 233 215 172 161 243 238 218 235 245 233 243 258 241 226 233 232 218 206 191 178 176 176 168 172 178 181 189 189 183 177 175 177 180 180 174 171 173 176
196 208 223 233 239 240 240 168 133 175 235 227 203 225 231 215 230 270 37 293 239 233 219 178 167 174 178 166 167 178 182 192 192 179 173 175 178 181 179 175 171 168 168 167
192 201 212 219 231 237 192 151 186 208 160 154 183 205 205 211 215 66 65 68 68 65 68 124 146 156 157 162 170 181 192 189 168 165 171 176 177 176 174 172 171 171 171 173
203 199 194 203 220 231 174 195 201 151 164 178 183 192 169 167 173 143 105 82 69 71 69 81 125 129 140 164 173 183 182 155 154 162 170 172 172 175 175 177 175 174 177 183
234 190 185 225 239 226 215 239 240 179 167 164 162 162 163 163 158 149 136 109 85 71 74 90 121 135 145 159 168 165 147 149 156 165 169 169 172 176 176 180 180 182 185 190
203 174 193 228 245 278 248 219 201 178 157 141 128 136 156 149 154 161 161 154 133 103 80 102 131 142 142 132 131 134 146 150 157 162 164 169 175 177 181 187 194 194 199 197
191 179 184 217 207 196 224 209 181 178 186 176 158 150 156 163 163 155 155 150 140 133 118 113 117 124 126 128 132 140 149 153 154 159 167 172 173 175 180 185 200 221 212 218